Flag for Egypt

Past Weather in Zagazig, Egypt — Yesterday and Last 2 Weeks

Now
75 °F

Haze.


Feels Like: 76 °F
Forecast: 96 / 68 °F
Wind: 5 mph from North

Location: Cairo Airport
Current Time: Sep 26, 2020 at 5:23:30 am
Latest Report: Sep 26, 2020 at 5:00 am
Visibility: 2 mi
Pressure29.86 "Hg
Humidity: 78%
Dew Point: 68 °F
Location of ZagazigLocation

Past Weather in Zagazig — Graph

°F

Zagazig Temperature Yesterday

Maximum temperature yesterday: 93 °F (at 3:00 pm)
Minimum temperature yesterday: 75 °F (at 2:30 am)
Average temperature yesterday: 83 °F

High & Low Weather Summary for the Past Weeks

 TemperatureHumidityPressure
High99 °F (Sep 11, 2:00 pm)100% (Sep 19, 6:30 am)29.98 "Hg (Sep 19, 6:30 am)
Low73 °F (Sep 15, 6:00 am)19% (Sep 18, 1:00 pm)29.68 "Hg (Sep 11, 4:00 am)
Average85 °F58%29.89 "Hg
* Reported Sep 11 4:00 am — Sep 26 4:00 am, Zagazig. Weather by CustomWeather, © 2020

Note: Actual official high and low records may vary slightly from our data, if they occured in-between our weather recording intervals... More about our weather records

Zagazig Weather History for the Previous 24 Hours

Scroll right to see more
 ConditionsComfort  
Time TempWeatherWind HumidityBarometerVisibility
4:00 am
Sat, Sep 26
75 °FClear.3 mph74%29.86 "Hg4 mi
3:30 am77 °FClear.3 mph69%29.86 "Hg10 mi
3:00 am75 °FClear.1 mph74%29.86 "Hg10 mi
2:00 am77 °FClear.3 mph69%29.86 "Hg10 mi
1:30 am77 °FClear.6 mph65%29.86 "Hg10 mi
1:00 am77 °FClear.7 mph69%29.89 "Hg10 mi
12:30 am79 °FClear.7 mph61%29.89 "Hg10 mi
12:00 am79 °FClear.6 mph65%29.89 "Hg10 mi
11:30 pm
Fri, Sep 25
79 °FClear.8 mph65%29.89 "Hg10 mi
11:00 pm79 °FClear.8 mph65%29.89 "Hg10 mi
10:30 pm81 °FClear.6 mph62%29.89 "Hg10 mi
10:00 pm81 °FClear.9 mph62%29.89 "Hg10 mi
9:30 pm82 °FClear.9 mph58%29.89 "Hg10 mi
9:00 pm82 °FClear.13 mph55%29.89 "Hg10 mi
8:30 pm82 °FPassing clouds.14 mph55%29.89 "HgN/A
8:00 pm84 °FPassing clouds.14 mph51%29.89 "HgN/A
7:30 pm86 °FPassing clouds.12 mph46%29.89 "HgN/A
7:00 pm86 °FPassing clouds.13 mph43%29.86 "HgN/A
6:30 pm88 °FPassing clouds.13 mph40%29.86 "HgN/A
6:00 pm90 °FPassing clouds.13 mph38%29.86 "HgN/A
5:30 pm91 °FScattered clouds.14 mph38%29.86 "HgN/A
5:00 pm91 °FScattered clouds.14 mph38%29.86 "HgN/A
4:30 pm91 °FScattered clouds.9 mph38%29.86 "HgN/A
4:00 pm91 °FScattered clouds.9 mph38%29.86 "HgN/A
3:00 pm93 °FScattered clouds.12 mph36%29.86 "HgN/A
2:30 pm91 °FClear.8 mph38%29.86 "Hg4 mi
2:00 pm91 °FClear.8 mph38%29.86 "Hg4 mi
1:30 pm90 °FPassing clouds.9 mph43%29.89 "Hg4 mi
1:00 pm90 °FPassing clouds.9 mph43%29.89 "Hg4 mi
12:30 pm88 °FPassing clouds.7 mph46%29.92 "Hg4 mi
12:00 pm88 °FPassing clouds.7 mph46%29.92 "Hg4 mi
11:30 am86 °FPassing clouds.8 mph49%29.92 "Hg4 mi
11:00 am84 °FPassing clouds.6 mph55%29.92 "Hg4 mi
10:30 am84 °FScattered clouds.8 mph58%29.92 "Hg4 mi
10:00 am82 °FScattered clouds.9 mph66%29.95 "Hg4 mi
9:30 am82 °FScattered clouds.8 mph66%29.95 "Hg4 mi
9:00 am81 °FScattered clouds.6 mph74%29.95 "Hg4 mi
8:30 am81 °FScattered clouds.7 mph74%29.92 "Hg4 mi
8:00 am79 °FScattered clouds.2 mph79%29.92 "Hg4 mi
7:30 am79 °FScattered clouds.5 mph74%29.92 "Hg4 mi
7:00 am77 °FScattered clouds.No wind79%29.92 "Hg4 mi
6:30 am75 °FScattered clouds.No wind83%29.92 "Hg4 mi
6:00 am75 °FScattered clouds.No wind78%29.92 "Hg4 mi
5:30 am75 °FPassing clouds.No wind78%29.92 "Hg4 mi
5:00 am75 °FPassing clouds.2 mph78%29.92 "Hg4 mi
Weather by CustomWeather, © 2020

See weather overview